TimeEDT,TemperatureF,Dew PointF,Humidity,Sea Level PressureIn,VisibilityMPH,Wind Direction,Wind SpeedMPH,Gust SpeedMPH,PrecipitationIn,Events,Conditions,WindDirDegrees,DateUTC
12:58 AM,67.8,54.5,62,29.99,10.0,South,3.5,-,N/A,,Clear,170,2013-05-16 04:58:00
1:58 AM,66.0,54.7,67,29.98,10.0,SE,3.5,-,N/A,,Clear,130,2013-05-16 05:58:00
2:58 AM,68.4,53.8,60,29.97,10.0,SW,10.4,-,N/A,,Clear,230,2013-05-16 06:58:00
3:58 AM,70.2,53.2,55,29.96,10.0,WSW,9.2,-,N/A,,Clear,240,2013-05-16 07:58:00
4:58 AM,68.9,53.4,58,29.96,10.0,WSW,9.2,-,N/A,,Clear,250,2013-05-16 08:58:00
5:58 AM,68.7,53.4,58,29.97,10.0,WSW,9.2,-,N/A,,Clear,250,2013-05-16 09:58:00
6:58 AM,66.9,54.7,65,29.99,10.0,SSW,5.8,-,N/A,,Clear,210,2013-05-16 10:58:00
7:58 AM,71.1,54.9,56,30.01,10.0,WSW,10.4,-,N/A,,Partly Cloudy,240,2013-05-16 11:58:00
8:58 AM,73.6,55.0,52,30.02,10.0,West,9.2,-,N/A,,Mostly Cloudy,260,2013-05-16 12:58:00
9:55 AM,75.0,56.5,52,30.03,10.0,WSW,8.1,-,N/A,,Clear,240,2013-05-16 13:55:00
10:55 AM,77.2,57.2,50,30.04,10.0,WSW,8.1,-,N/A,,Partly Cloudy,240,2013-05-16 14:55:00
11:55 AM,81.7,57.9,44,30.05,10.0,SSW,10.4,-,N/A,,Partly Cloudy,210,2013-05-16 15:55:00
12:55 PM,82.4,59.0,45,30.02,10.0,SSW,10.4,-,N/A,,Scattered Clouds,210,2013-05-16 16:55:00
1:55 PM,82.4,59.0,45,30.02,10.0,SW,11.5,-,N/A,,Mostly Cloudy,220,2013-05-16 17:55:00
2:55 PM,84.2,59.0,42,30.01,10.0,WSW,10.4,-,N/A,,Scattered Clouds,240,2013-05-16 18:55:00
3:55 PM,80.6,60.8,51,30.00,10.0,SSW,8.1,-,N/A,,Clear,210,2013-05-16 19:55:00
4:55 PM,82.4,60.8,48,29.99,10.0,SW,10.4,-,N/A,,Clear,230,2013-05-16 20:55:00
5:58 PM,81.0,61.0,50,29.98,10.0,SSW,9.2,-,N/A,,Partly Cloudy,210,2013-05-16 21:58:00
6:58 PM,81.0,60.8,50,29.98,10.0,WSW,6.9,-,N/A,,Scattered Clouds,240,2013-05-16 22:58:00
7:58 PM,77.7,61.5,57,29.99,10.0,SSW,5.8,-,N/A,,Partly Cloudy,210,2013-05-16 23:58:00
8:58 PM,73.8,61.7,66,30.01,10.0,SSW,3.5,-,N/A,,Partly Cloudy,200,2013-05-17 00:58:00
9:58 PM,69.8,62.4,77,30.03,10.0,SSW,4.6,-,N/A,,Clear,200,2013-05-17 01:58:00
10:58 PM,69.1,61.3,76,30.04,10.0,South,2.3,-,N/A,,Clear,190,2013-05-17 02:58:00
11:58 PM,66.6,60.6,81,30.03,10.0,South,3.5,-,N/A,,Clear,190,2013-05-17 03:58:00